Regional Weather Roundup
Issued by NWS

Home | Current Version | Previous Version | Graphics & Text | Print | Product List | Glossary On
Versions: 1 2 3 4 5 6 7 8 9 10 11 12 13 14 15 16 17 18 19 20 21 22 23 24 25 26 27 28 29 30 31 32 33 34 35 36 37 38 39 40 41 42 43 44 45 46 47 48 49 50
000
ASUS43 KBIS 061602
RWRND

NORTH DAKOTA REGIONAL WEATHER ROUNDUP
NATIONAL WEATHER SERVICE BISMARCK ND
1000 AM CST TUE DEC 06 2016

NOTE: "FAIR" INDICATES FEW OR NO CLOUDS BELOW 12,000 FEET WITH NO
SIGNIFICANT WEATHER AND/OR OBSTRUCTIONS TO VISIBILITY.


NDZ001>003-009>011-017-061700-
NORTHWEST NORTH DAKOTA

CITY           SKY/WX    TMP DP  RH WIND       PRES   REMARKS
WILLISTON      CLOUDY     4  -2  76 NW20      30.03R WCI -17
MINOT          SNOW      10   6  84 W35G49    29.80R VSB 1/4 WCI -13
MINOT AFB      BLWGSNOW   9   5  85 NW38G45   29.78R VSB<1/4 WCI -16
$$

NDZ018>021-031>035-040>046-061700-
SOUTHWEST NORTH DAKOTA

CITY           SKY/WX    TMP DP  RH WIND       PRES   REMARKS
BISMARCK       LGT SNOW   9   7  92 NW25G33   29.85R VSB 1   WCI -12
DICKINSON      MIX PCPN   1  -5  75 NW31G40   29.91R VSB 3/4 WCI -25
GARRISON         N/A      7   4  87 NW41G56   29.82R WCI -19
HETTINGER ARPT CLOUDY     4  -3  73 NW33G44   29.94R HAZE    WCI -22
$$

NDZ004>008-012>016-024-026-027-054-061700-
NORTHEAST NORTH DAKOTA

CITY           SKY/WX    TMP DP  RH WIND       PRES   REMARKS
GRAND FORKS    SNOW      29  26  89 NW35G44   29.29R VSB 1/2 WCI  12
GRND FRKS AFB  SNOW      28  26  92 N28G39    29.32R VSB 1/2 WCI  13
DEVILS LAKE    LGT SNOW  20  17  88 NW35G40   29.51R VSB 3/4 WCI   0
$$

NDZ022-023-025-028>030-036>039-047>053-061700-
SOUTHEAST NORTH DAKOTA

CITY           SKY/WX    TMP DP  RH WIND       PRES   REMARKS
FARGO          LGT SNOW  22  18  85 W33G45    29.42R VSB 3/4 WCI   3
JAMESTOWN      SNOW      14  11  87 NW39G53   29.58R VSB 1/4 WCI  -9
$$





USA.gov is the U.S. government's official web portal to all federal, state and local government web resources and services.